Tracking 29892 objects as of 21-Nov-2024
HD Live streaming from Space Station
objects crossing your sky now

THORAD AGENA D DEB

Track THORAD AGENA D DEB now!
10-day predictions


NORAD ID: 4968
Int'l Code: 1970-025GN
Perigee: 1,019.4 km
Apogee: 1,049.4 km
Inclination: 100.1 °
Period: 105.7 minutes
Semi major axis: 7405 km
RCS: 0.079 m2 (small)
Launch date: April 8, 1970
Source: United States (US)
Launch site: AIR FORCE WESTERN TEST RANGE (AFWTR)

Note: This is SATELLITE DEBRIS
Your satellite tracking list
Your tracking list is empty




NASA's NSSDC Master Catalog

Two Line Element Set (TLE):
1 04968U 70025GN  24325.45807376  .00000392  00000-0  56803-3 0  9996
2 04968 100.1439 300.5055 0020277  15.8060 139.1850 13.62327291706278
Source of the keplerian elements: AFSPC